Year,Month,Day,Hour,Minute,Value (Times are PST for temperature in C)
2016,02,19,00,00,6.90
2016,02,19,00,01,6.90
2016,02,19,00,02,7.00
2016,02,19,00,03,7.00
2016,02,19,00,04,7.10
2016,02,19,00,05,7.10
2016,02,19,00,06,7.20
2016,02,19,00,07,7.20
2016,02,19,00,08,7.20
2016,02,19,00,09,7.20
2016,02,19,00,10,7.20
2016,02,19,00,11,7.20
2016,02,19,00,12,7.20
2016,02,19,00,13,7.20
2016,02,19,00,14,7.20
2016,02,19,00,15,7.20
2016,02,19,00,16,7.20
2016,02,19,00,17,7.20
2016,02,19,00,18,7.30
2016,02,19,00,19,7.30
2016,02,19,00,20,7.30
2016,02,19,00,21,7.20
2016,02,19,00,22,7.20
2016,02,19,00,23,7.20
2016,02,19,00,24,7.20
2016,02,19,00,25,7.10
2016,02,19,00,26,7.10
2016,02,19,00,27,7.00
2016,02,19,00,28,7.00
2016,02,19,00,29,6.90
2016,02,19,00,30,6.90
2016,02,19,00,31,6.80
2016,02,19,00,32,6.80
2016,02,19,00,33,6.70
2016,02,19,00,34,6.70
2016,02,19,00,35,6.60
2016,02,19,00,36,6.60
2016,02,19,00,37,6.50
2016,02,19,00,38,6.50
2016,02,19,00,39,6.40
2016,02,19,00,40,6.40
2016,02,19,00,41,6.30
2016,02,19,00,42,6.30
2016,02,19,00,43,6.20
2016,02,19,00,44,6.20
2016,02,19,00,45,6.20
2016,02,19,00,46,6.20
2016,02,19,00,47,6.10
2016,02,19,00,48,6.10
2016,02,19,00,49,6.10
2016,02,19,00,50,6.10
2016,02,19,00,51,6.10
2016,02,19,00,52,6.10
2016,02,19,00,53,6.10
2016,02,19,00,54,6.00
2016,02,19,00,55,6.00
2016,02,19,00,56,6.00
2016,02,19,00,57,6.00
2016,02,19,00,58,6.00
2016,02,19,00,59,6.00
2016,02,19,01,00,6.00
2016,02,19,01,01,6.00
2016,02,19,01,02,6.00
2016,02,19,01,03,6.00
2016,02,19,01,04,6.00
2016,02,19,01,05,6.00
2016,02,19,01,06,6.00
2016,02,19,01,07,6.00
2016,02,19,01,08,6.00
2016,02,19,01,09,6.00
2016,02,19,01,10,6.00
2016,02,19,01,11,6.00
2016,02,19,01,12,6.00
2016,02,19,01,13,6.00
2016,02,19,01,14,6.00
2016,02,19,01,15,6.00
2016,02,19,01,16,6.00
2016,02,19,01,17,6.00
2016,02,19,01,18,6.00
2016,02,19,01,19,6.00
2016,02,19,01,20,6.00
2016,02,19,01,21,6.00
2016,02,19,01,22,6.00
2016,02,19,01,23,6.00
2016,02,19,01,24,6.00
2016,02,19,01,25,6.00
2016,02,19,01,26,6.00
2016,02,19,01,27,6.00
2016,02,19,01,28,6.00
2016,02,19,01,29,6.00
2016,02,19,01,30,6.10
2016,02,19,01,31,6.10
2016,02,19,01,32,6.10
2016,02,19,01,33,6.10
2016,02,19,01,34,6.10
2016,02,19,01,35,6.10
2016,02,19,01,36,6.10
2016,02,19,01,37,6.10
2016,02,19,01,38,6.10
2016,02,19,01,39,6.10
2016,02,19,01,40,6.10
2016,02,19,01,41,6.10
2016,02,19,01,42,6.10
2016,02,19,01,43,6.10
2016,02,19,01,44,6.10
2016,02,19,01,45,6.10
2016,02,19,01,46,6.10
2016,02,19,01,47,6.10
2016,02,19,01,48,6.00
2016,02,19,01,49,6.00
2016,02,19,01,50,6.00
2016,02,19,01,51,6.10
2016,02,19,01,52,6.00
2016,02,19,01,53,6.10
2016,02,19,01,54,6.10
2016,02,19,01,55,6.10
2016,02,19,01,56,6.10
2016,02,19,01,57,6.10
2016,02,19,01,58,6.00
2016,02,19,01,59,6.00
2016,02,19,02,00,6.00
2016,02,19,02,01,6.00
2016,02,19,02,02,6.00
2016,02,19,02,03,6.00
2016,02,19,02,04,6.00
2016,02,19,02,05,6.00
2016,02,19,02,06,5.90
2016,02,19,02,07,5.90
2016,02,19,02,08,5.90
2016,02,19,02,09,5.90
2016,02,19,02,10,5.90
2016,02,19,02,11,5.90
2016,02,19,02,12,5.90
2016,02,19,02,13,5.90
2016,02,19,02,14,5.90
2016,02,19,02,15,5.90
2016,02,19,02,16,5.90
2016,02,19,02,17,5.90
2016,02,19,02,18,5.90
2016,02,19,02,19,5.90
2016,02,19,02,20,5.90
2016,02,19,02,21,5.90
2016,02,19,02,22,5.90
2016,02,19,02,23,5.90
2016,02,19,02,24,5.90
2016,02,19,02,25,6.00
2016,02,19,02,26,5.90
2016,02,19,02,27,6.00
2016,02,19,02,28,6.00
2016,02,19,02,29,5.90
2016,02,19,02,30,6.00
2016,02,19,02,31,5.90
2016,02,19,02,32,6.00
2016,02,19,02,33,6.00
2016,02,19,02,34,6.00
2016,02,19,02,35,5.90
2016,02,19,02,36,5.90
2016,02,19,02,37,5.90
2016,02,19,02,38,5.90
2016,02,19,02,39,5.90
2016,02,19,02,40,5.90
2016,02,19,02,41,5.90
2016,02,19,02,42,5.90
2016,02,19,02,43,5.90
2016,02,19,02,44,5.90
2016,02,19,02,45,5.90
2016,02,19,02,46,5.90
2016,02,19,02,47,5.90
2016,02,19,02,48,5.90
2016,02,19,02,49,5.90
2016,02,19,02,50,5.90
2016,02,19,02,51,5.90
2016,02,19,02,52,6.00
2016,02,19,02,53,6.00
2016,02,19,02,54,6.00
2016,02,19,02,55,6.00
2016,02,19,02,56,6.00
2016,02,19,02,57,6.00
2016,02,19,02,58,6.00
2016,02,19,02,59,6.00
2016,02,19,03,00,6.00
2016,02,19,03,01,6.00
2016,02,19,03,02,6.00
2016,02,19,03,03,6.00
2016,02,19,03,04,6.00
2016,02,19,03,05,6.00
2016,02,19,03,06,6.00
2016,02,19,03,07,6.00
2016,02,19,03,08,6.00
2016,02,19,03,09,6.00
2016,02,19,03,10,6.00
2016,02,19,03,11,6.00
2016,02,19,03,12,6.00
2016,02,19,03,13,6.00
2016,02,19,03,14,6.00
2016,02,19,03,15,6.00
2016,02,19,03,16,6.00
2016,02,19,03,17,6.00
2016,02,19,03,18,6.00
2016,02,19,03,19,6.00
2016,02,19,03,20,6.10
2016,02,19,03,21,6.10
2016,02,19,03,22,6.00
2016,02,19,03,23,6.10
2016,02,19,03,24,6.10
2016,02,19,03,25,6.10
2016,02,19,03,26,6.10
2016,02,19,03,27,6.10
2016,02,19,03,28,6.10
2016,02,19,03,29,6.10
2016,02,19,03,30,6.10
2016,02,19,03,31,6.10
2016,02,19,03,32,6.10
2016,02,19,03,33,6.10
2016,02,19,03,34,6.10
2016,02,19,03,35,6.10
2016,02,19,03,36,6.10
2016,02,19,03,37,6.10
2016,02,19,03,38,6.10
2016,02,19,03,39,6.10
2016,02,19,03,40,6.10
2016,02,19,03,41,6.10
2016,02,19,03,42,6.10
2016,02,19,03,43,6.10
2016,02,19,03,44,6.10
2016,02,19,03,45,6.10
2016,02,19,03,46,6.10
2016,02,19,03,47,6.10
2016,02,19,03,48,6.10
2016,02,19,03,49,6.10
2016,02,19,03,50,6.10
2016,02,19,03,51,6.10
2016,02,19,03,52,6.10
2016,02,19,03,53,6.10
2016,02,19,03,54,6.10
2016,02,19,03,55,6.10
2016,02,19,03,56,6.10
2016,02,19,03,57,6.20
2016,02,19,03,58,6.20
2016,02,19,03,59,6.20
2016,02,19,04,00,6.20
2016,02,19,04,01,6.20
2016,02,19,04,02,6.20
2016,02,19,04,03,6.20
2016,02,19,04,04,6.20
2016,02,19,04,05,6.20
2016,02,19,04,06,6.20
2016,02,19,04,07,6.20
2016,02,19,04,08,6.20
2016,02,19,04,09,6.20
2016,02,19,04,10,6.20
2016,02,19,04,11,6.20
2016,02,19,04,12,6.20
2016,02,19,04,13,6.30
2016,02,19,04,14,6.30
2016,02,19,04,15,6.30
2016,02,19,04,16,6.30
2016,02,19,04,17,6.30
2016,02,19,04,18,6.30
2016,02,19,04,19,6.30
2016,02,19,04,20,6.30
2016,02,19,04,21,6.40
2016,02,19,04,22,6.40
2016,02,19,04,23,6.40
2016,02,19,04,24,6.40
2016,02,19,04,25,6.40
2016,02,19,04,26,6.40
2016,02,19,04,27,6.40
2016,02,19,04,28,6.40
2016,02,19,04,29,6.40
2016,02,19,04,30,6.40
2016,02,19,04,31,6.40
2016,02,19,04,32,6.50
2016,02,19,04,33,6.50
2016,02,19,04,34,6.50
2016,02,19,04,35,6.50
2016,02,19,04,36,6.50
2016,02,19,04,37,6.50
2016,02,19,04,38,6.50
2016,02,19,04,39,6.50
2016,02,19,04,40,6.50
2016,02,19,04,41,6.50
2016,02,19,04,42,6.50
2016,02,19,04,43,6.60
2016,02,19,04,44,6.50
2016,02,19,04,45,6.60
2016,02,19,04,46,6.50
2016,02,19,04,47,6.60
2016,02,19,04,48,6.60
2016,02,19,04,49,6.60
2016,02,19,04,50,6.60
2016,02,19,04,51,6.60
2016,02,19,04,52,6.60
2016,02,19,04,53,6.60
2016,02,19,04,54,6.60
2016,02,19,04,55,6.60
2016,02,19,04,56,6.60
2016,02,19,04,57,6.60
2016,02,19,04,58,6.60
2016,02,19,04,59,6.60
2016,02,19,05,00,6.60
2016,02,19,05,01,6.60
2016,02,19,05,02,6.60
2016,02,19,05,03,6.60
2016,02,19,05,04,6.60
2016,02,19,05,05,6.60
2016,02,19,05,06,6.60
2016,02,19,05,07,6.60
2016,02,19,05,08,6.60
2016,02,19,05,09,6.60
2016,02,19,05,10,6.60
2016,02,19,05,11,6.60
2016,02,19,05,12,6.60
2016,02,19,05,13,6.60
2016,02,19,05,14,6.60
2016,02,19,05,15,6.60
2016,02,19,05,16,6.70
2016,02,19,05,17,6.70
2016,02,19,05,18,6.70
2016,02,19,05,19,6.70
2016,02,19,05,20,6.70
2016,02,19,05,21,6.70
2016,02,19,05,22,6.70
2016,02,19,05,23,6.70
2016,02,19,05,24,6.70
2016,02,19,05,25,6.70
2016,02,19,05,26,6.70
2016,02,19,05,27,6.70
2016,02,19,05,28,6.70
2016,02,19,05,29,6.70
2016,02,19,05,30,6.70
2016,02,19,05,31,6.70
2016,02,19,05,32,6.70
2016,02,19,05,33,6.70
2016,02,19,05,34,6.70
2016,02,19,05,35,6.70
2016,02,19,05,36,6.70
2016,02,19,05,37,6.70
2016,02,19,05,38,6.70
2016,02,19,05,39,6.70
2016,02,19,05,40,6.70
2016,02,19,05,41,6.70
2016,02,19,05,42,6.70
2016,02,19,05,43,6.70
2016,02,19,05,44,6.70
2016,02,19,05,45,6.70
2016,02,19,05,46,6.70
2016,02,19,05,47,6.70
2016,02,19,05,48,6.70
2016,02,19,05,49,6.70
2016,02,19,05,50,6.70
2016,02,19,05,51,6.70
2016,02,19,05,52,6.70
2016,02,19,05,53,6.70
2016,02,19,05,54,6.70
2016,02,19,05,55,6.70
2016,02,19,05,56,6.70
2016,02,19,05,57,6.70
2016,02,19,05,58,6.70
2016,02,19,05,59,6.70
2016,02,19,06,00,6.70
2016,02,19,06,01,6.70
2016,02,19,06,02,6.70
2016,02,19,06,03,6.70
2016,02,19,06,04,6.70
2016,02,19,06,05,6.70
2016,02,19,06,06,6.70
2016,02,19,06,07,6.70
2016,02,19,06,08,6.70
2016,02,19,06,09,6.80
2016,02,19,06,10,6.70
2016,02,19,06,11,6.80
2016,02,19,06,12,6.80
2016,02,19,06,13,6.80
2016,02,19,06,14,6.70
2016,02,19,06,15,6.70
2016,02,19,06,16,6.70
2016,02,19,06,17,6.70
2016,02,19,06,18,6.70
2016,02,19,06,19,6.70
2016,02,19,06,20,6.70
2016,02,19,06,21,6.80
2016,02,19,06,22,6.80
2016,02,19,06,23,6.80
2016,02,19,06,24,6.80
2016,02,19,06,25,6.80
2016,02,19,06,26,6.80
2016,02,19,06,27,6.80
2016,02,19,06,28,6.80
2016,02,19,06,29,6.80
2016,02,19,06,30,6.80
2016,02,19,06,31,6.80
2016,02,19,06,32,6.80
2016,02,19,06,33,6.80
2016,02,19,06,34,6.70
2016,02,19,06,35,6.70
2016,02,19,06,36,6.70
2016,02,19,06,37,6.70
2016,02,19,06,38,6.70
2016,02,19,06,39,6.70
2016,02,19,06,40,6.70
2016,02,19,06,41,6.70
2016,02,19,06,42,6.70
2016,02,19,06,43,6.70
2016,02,19,06,44,6.70
2016,02,19,06,45,6.60
2016,02,19,06,46,6.60
2016,02,19,06,47,6.60
2016,02,19,06,48,6.60
2016,02,19,06,49,6.60
2016,02,19,06,50,6.60
2016,02,19,06,51,6.60
2016,02,19,06,52,6.60
2016,02,19,06,53,6.60
2016,02,19,06,54,6.60
2016,02,19,06,55,6.60
2016,02,19,06,56,6.60
2016,02,19,06,57,6.60
2016,02,19,06,58,6.60
2016,02,19,06,59,6.60
2016,02,19,07,00,6.60
2016,02,19,07,01,6.60
2016,02,19,07,02,6.60
2016,02,19,07,03,6.70
2016,02,19,07,04,6.70
2016,02,19,07,05,6.70
2016,02,19,07,06,6.70
2016,02,19,07,07,6.70
2016,02,19,07,08,6.70
2016,02,19,07,09,6.70
2016,02,19,07,10,6.70
2016,02,19,07,11,6.70
2016,02,19,07,12,6.70
2016,02,19,07,13,6.70
2016,02,19,07,14,6.70
2016,02,19,07,15,6.70
2016,02,19,07,16,6.70
2016,02,19,07,17,6.80
2016,02,19,07,18,6.80
2016,02,19,07,19,6.80
2016,02,19,07,20,6.80
2016,02,19,07,21,6.90
2016,02,19,07,22,6.90
2016,02,19,07,23,6.90
2016,02,19,07,24,7.00
2016,02,19,07,25,7.00
2016,02,19,07,26,7.00
2016,02,19,07,27,7.10
2016,02,19,07,28,7.10
2016,02,19,07,29,7.10
2016,02,19,07,30,7.10
2016,02,19,07,31,7.10
2016,02,19,07,32,7.20
2016,02,19,07,33,7.20
2016,02,19,07,34,7.20
2016,02,19,07,35,7.20
2016,02,19,07,36,7.20
2016,02,19,07,37,7.20
2016,02,19,07,38,7.20
2016,02,19,07,39,7.20
2016,02,19,07,40,7.20
2016,02,19,07,41,7.20
2016,02,19,07,42,7.20
2016,02,19,07,43,7.20
2016,02,19,07,44,7.20
2016,02,19,07,45,7.20
2016,02,19,07,46,7.30
2016,02,19,07,47,7.30
2016,02,19,07,48,7.30
2016,02,19,07,49,7.30
2016,02,19,07,50,7.30
2016,02,19,07,51,7.30
2016,02,19,07,52,7.30
2016,02,19,07,53,7.30
2016,02,19,07,54,7.30
2016,02,19,07,55,7.40
2016,02,19,07,56,7.40
2016,02,19,07,57,7.40
2016,02,19,07,58,7.40
2016,02,19,07,59,7.40
2016,02,19,08,00,7.50
2016,02,19,08,01,7.50
2016,02,19,08,02,7.50
2016,02,19,08,03,7.50
2016,02,19,08,04,7.50
2016,02,19,08,05,7.60
2016,02,19,08,06,7.60
2016,02,19,08,07,7.60
2016,02,19,08,08,7.60
2016,02,19,08,09,7.60
2016,02,19,08,10,7.60
2016,02,19,08,11,7.60
2016,02,19,08,12,7.60
2016,02,19,08,13,7.60
2016,02,19,08,14,7.60
2016,02,19,08,15,7.70
2016,02,19,08,16,7.70
2016,02,19,08,17,7.70
2016,02,19,08,18,7.70
2016,02,19,08,19,7.70
2016,02,19,08,20,7.70
2016,02,19,08,21,7.70
2016,02,19,08,22,7.70
2016,02,19,08,23,7.70
2016,02,19,08,24,7.70
2016,02,19,08,25,7.70
2016,02,19,08,26,7.70
2016,02,19,08,27,7.70
2016,02,19,08,28,7.70
2016,02,19,08,29,7.70
2016,02,19,08,30,7.70
2016,02,19,08,31,7.70
2016,02,19,08,32,7.80
2016,02,19,08,33,7.80
2016,02,19,08,34,7.80
2016,02,19,08,35,7.80
2016,02,19,08,36,7.80
2016,02,19,08,37,7.80
2016,02,19,08,38,7.80
2016,02,19,08,39,7.80
2016,02,19,08,40,7.80
2016,02,19,08,41,7.80
2016,02,19,08,42,7.80
2016,02,19,08,43,7.80
2016,02,19,08,44,7.80
2016,02,19,08,45,7.80
2016,02,19,08,46,7.80
2016,02,19,08,47,7.90
2016,02,19,08,48,7.90
2016,02,19,08,49,7.90
2016,02,19,08,50,7.90
2016,02,19,08,51,7.90
2016,02,19,08,52,7.90
2016,02,19,08,53,7.90
2016,02,19,08,54,7.90
2016,02,19,08,55,7.90
2016,02,19,08,56,7.90
2016,02,19,08,57,7.90
2016,02,19,08,58,7.90
2016,02,19,08,59,7.90
2016,02,19,09,00,7.90
2016,02,19,09,01,7.90
2016,02,19,09,02,7.90
2016,02,19,09,03,7.90
2016,02,19,09,04,7.90
2016,02,19,09,05,7.90
2016,02,19,09,06,7.90
2016,02,19,09,07,7.90
2016,02,19,09,08,7.90
2016,02,19,09,09,7.90
2016,02,19,09,10,7.90
2016,02,19,09,11,7.90
2016,02,19,09,12,8.00
2016,02,19,09,13,8.00
2016,02,19,09,14,8.00
2016,02,19,09,15,8.00
2016,02,19,09,16,8.00
2016,02,19,09,17,8.10
2016,02,19,09,18,8.10
2016,02,19,09,19,8.10
2016,02,19,09,20,8.10
2016,02,19,09,21,8.10
2016,02,19,09,22,8.10
2016,02,19,09,23,8.10
2016,02,19,09,24,8.10
2016,02,19,09,25,8.20
2016,02,19,09,26,8.20
2016,02,19,09,27,8.20
2016,02,19,09,28,8.20
2016,02,19,09,29,8.20
2016,02,19,09,30,8.20
2016,02,19,09,31,8.10
2016,02,19,09,32,8.20
2016,02,19,09,33,8.20
2016,02,19,09,34,8.20
2016,02,19,09,35,8.20
2016,02,19,09,36,8.20
2016,02,19,09,37,8.20
2016,02,19,09,38,8.20
2016,02,19,09,39,8.20
2016,02,19,09,40,8.20
2016,02,19,09,41,8.20
2016,02,19,09,42,8.20
2016,02,19,09,43,8.20
2016,02,19,09,44,8.20
2016,02,19,09,45,8.20
2016,02,19,09,46,8.20
2016,02,19,09,47,8.20
2016,02,19,09,48,8.20
2016,02,19,09,49,8.20
2016,02,19,09,50,8.20
2016,02,19,09,51,8.20
2016,02,19,09,52,8.20
2016,02,19,09,53,8.20
2016,02,19,09,54,8.20
2016,02,19,09,55,8.30
2016,02,19,09,56,8.30
2016,02,19,09,57,8.30
2016,02,19,09,58,8.30
2016,02,19,09,59,8.30
2016,02,19,10,00,8.30
2016,02,19,10,01,8.30
2016,02,19,10,02,8.30
2016,02,19,10,03,8.30
2016,02,19,10,04,8.30
2016,02,19,10,05,8.30
2016,02,19,10,06,8.30
2016,02,19,10,07,8.30
2016,02,19,10,08,8.30
2016,02,19,10,09,8.30
2016,02,19,10,10,8.30
2016,02,19,10,11,8.30
2016,02,19,10,12,8.30
2016,02,19,10,13,8.30
2016,02,19,10,14,8.30
2016,02,19,10,15,8.40
2016,02,19,10,16,8.40
2016,02,19,10,17,8.40
2016,02,19,10,18,8.40
2016,02,19,10,19,8.40
2016,02,19,10,20,8.40
2016,02,19,10,21,8.40
2016,02,19,10,22,8.40
2016,02,19,10,23,8.40
2016,02,19,10,24,8.40
2016,02,19,10,25,8.40
2016,02,19,10,26,8.40
2016,02,19,10,27,8.40
2016,02,19,10,28,8.40
2016,02,19,10,29,8.40
2016,02,19,10,30,8.40
2016,02,19,10,31,8.40
2016,02,19,10,32,8.40
2016,02,19,10,33,8.50
2016,02,19,10,34,8.50
2016,02,19,10,35,8.50
2016,02,19,10,36,8.50
2016,02,19,10,37,8.50
2016,02,19,10,38,8.50
2016,02,19,10,39,8.50
2016,02,19,10,40,8.50
2016,02,19,10,41,8.50
2016,02,19,10,42,8.50
2016,02,19,10,43,8.50
2016,02,19,10,44,8.50
2016,02,19,10,45,8.60
2016,02,19,10,46,8.60
2016,02,19,10,47,8.60
2016,02,19,10,48,8.60
2016,02,19,10,49,8.60
2016,02,19,10,50,8.60
2016,02,19,10,51,8.60
2016,02,19,10,52,8.60
2016,02,19,10,53,8.60
2016,02,19,10,54,8.60
2016,02,19,10,55,8.60
2016,02,19,10,56,8.70
2016,02,19,10,57,8.70
2016,02,19,10,58,8.70
2016,02,19,10,59,8.70
2016,02,19,11,00,8.70
2016,02,19,11,01,8.70
2016,02,19,11,02,8.70
2016,02,19,11,03,8.70
2016,02,19,11,04,8.70
2016,02,19,11,05,8.70
2016,02,19,11,06,8.70
2016,02,19,11,07,8.70
2016,02,19,11,08,8.70
2016,02,19,11,09,8.70
2016,02,19,11,10,8.80
2016,02,19,11,11,8.80
2016,02,19,11,12,8.80
2016,02,19,11,13,8.80
2016,02,19,11,14,8.80
2016,02,19,11,15,8.80
2016,02,19,11,16,8.80
2016,02,19,11,17,8.80
2016,02,19,11,18,8.90
2016,02,19,11,19,8.90
2016,02,19,11,20,8.90
2016,02,19,11,21,8.90
2016,02,19,11,22,8.90
2016,02,19,11,23,8.90
2016,02,19,11,24,8.90
2016,02,19,11,25,8.90
2016,02,19,11,26,8.90
2016,02,19,11,27,8.90
2016,02,19,11,28,8.90
2016,02,19,11,29,8.90
2016,02,19,11,30,8.90
2016,02,19,11,31,8.90
2016,02,19,11,32,8.90
2016,02,19,11,33,9.00
2016,02,19,11,34,9.00
2016,02,19,11,35,9.00
2016,02,19,11,36,9.00
2016,02,19,11,37,8.90
2016,02,19,11,38,8.90
2016,02,19,11,39,9.00
2016,02,19,11,40,9.00
2016,02,19,11,41,9.00
2016,02,19,11,42,9.10
2016,02,19,11,43,9.10
2016,02,19,11,44,9.10
2016,02,19,11,45,9.10
2016,02,19,11,46,9.10
2016,02,19,11,47,9.10
2016,02,19,11,48,9.20
2016,02,19,11,49,9.20
2016,02,19,11,50,9.20
2016,02,19,11,51,9.20
2016,02,19,11,52,9.20
2016,02,19,11,53,9.30
2016,02,19,11,54,9.30
2016,02,19,11,55,9.30
2016,02,19,11,56,9.30
2016,02,19,11,57,9.30
2016,02,19,11,58,9.30
2016,02,19,11,59,9.30
2016,02,19,12,00,9.30
2016,02,19,12,01,9.30
2016,02,19,12,02,9.40
2016,02,19,12,03,9.40
2016,02,19,12,04,9.40
2016,02,19,12,05,9.40
2016,02,19,12,06,9.40
2016,02,19,12,07,9.40
2016,02,19,12,08,9.40
2016,02,19,12,09,9.40
2016,02,19,12,10,9.40
2016,02,19,12,11,9.40
2016,02,19,12,12,9.40
2016,02,19,12,13,9.40
2016,02,19,12,14,9.40
2016,02,19,12,15,9.40
2016,02,19,12,16,9.40
2016,02,19,12,17,9.40
2016,02,19,12,18,9.50
2016,02,19,12,19,9.50
2016,02,19,12,20,9.50
2016,02,19,12,21,9.50
2016,02,19,12,22,9.50
2016,02,19,12,23,9.50
2016,02,19,12,24,9.50
2016,02,19,12,25,9.50
2016,02,19,12,26,9.50
2016,02,19,12,27,9.50
2016,02,19,12,28,9.50
2016,02,19,12,29,9.50
2016,02,19,12,30,9.50
2016,02,19,12,31,9.50
2016,02,19,12,32,9.50
2016,02,19,12,33,9.50
2016,02,19,12,34,9.50
2016,02,19,12,35,9.50
2016,02,19,12,36,9.50
2016,02,19,12,37,9.50
2016,02,19,12,38,9.50
2016,02,19,12,39,9.50
2016,02,19,12,40,9.50
2016,02,19,12,41,9.50
2016,02,19,12,42,9.50
2016,02,19,12,43,9.60
2016,02,19,12,44,9.60
2016,02,19,12,45,9.60
2016,02,19,12,46,9.60
2016,02,19,12,47,9.60
2016,02,19,12,48,9.60
2016,02,19,12,49,9.60
2016,02,19,12,50,9.60
2016,02,19,12,51,9.50
2016,02,19,12,52,9.60
2016,02,19,12,53,9.50
2016,02,19,12,54,9.50
2016,02,19,12,55,9.50
2016,02,19,12,56,9.50
2016,02,19,12,57,9.50
2016,02,19,12,58,9.50
2016,02,19,12,59,9.50
2016,02,19,13,00,9.50
2016,02,19,13,01,9.50
2016,02,19,13,02,9.50
2016,02,19,13,03,9.50
2016,02,19,13,04,9.50
2016,02,19,13,05,9.50
2016,02,19,13,06,9.50
2016,02,19,13,07,9.50
2016,02,19,13,08,9.50
2016,02,19,13,09,9.50
2016,02,19,13,10,9.50
2016,02,19,13,11,9.50
2016,02,19,13,12,9.50
2016,02,19,13,13,9.50
2016,02,19,13,14,9.60
2016,02,19,13,15,9.60
2016,02,19,13,16,9.60
2016,02,19,13,17,9.60
2016,02,19,13,18,9.60
2016,02,19,13,19,9.60
2016,02,19,13,20,9.60
2016,02,19,13,21,9.60
2016,02,19,13,22,9.60
2016,02,19,13,23,9.60
2016,02,19,13,24,9.60
2016,02,19,13,25,9.60
2016,02,19,13,26,9.60
2016,02,19,13,27,9.60
2016,02,19,13,28,9.60
2016,02,19,13,29,9.60
2016,02,19,13,30,9.60
2016,02,19,13,31,9.60
2016,02,19,13,32,9.50
2016,02,19,13,33,9.50
2016,02,19,13,34,9.50
2016,02,19,13,35,9.50
2016,02,19,13,36,9.50
2016,02,19,13,37,9.50
2016,02,19,13,38,9.40
2016,02,19,13,39,9.40
2016,02,19,13,40,9.40
2016,02,19,13,41,9.30
2016,02,19,13,42,9.30
2016,02,19,13,43,9.30
2016,02,19,13,44,9.30
2016,02,19,13,45,9.30
2016,02,19,13,46,9.30
2016,02,19,13,47,9.30
2016,02,19,13,48,9.20
2016,02,19,13,49,9.20
2016,02,19,13,50,9.20
2016,02,19,13,51,9.20
2016,02,19,13,52,9.20
2016,02,19,13,53,9.20
2016,02,19,13,54,9.20
2016,02,19,13,55,9.20
2016,02,19,13,56,9.20
2016,02,19,13,57,9.20
2016,02,19,13,58,9.10
2016,02,19,13,59,9.10
2016,02,19,14,00,9.10
2016,02,19,14,01,9.10
2016,02,19,14,02,9.10
2016,02,19,14,03,9.10
2016,02,19,14,04,9.10
2016,02,19,14,05,9.10
2016,02,19,14,06,9.10
2016,02,19,14,07,9.10
2016,02,19,14,08,9.10
2016,02,19,14,09,9.10
2016,02,19,14,10,9.10
2016,02,19,14,11,9.10
2016,02,19,14,12,9.10
2016,02,19,14,13,9.10
2016,02,19,14,14,9.10
2016,02,19,14,15,9.10
2016,02,19,14,16,9.10
2016,02,19,14,17,9.10
2016,02,19,14,18,9.10
2016,02,19,14,19,9.10
2016,02,19,14,20,9.20
2016,02,19,14,21,9.20
2016,02,19,14,22,9.20
2016,02,19,14,23,9.20
2016,02,19,14,24,9.20
2016,02,19,14,25,9.20
2016,02,19,14,26,9.20
2016,02,19,14,27,9.20
2016,02,19,14,28,9.20
2016,02,19,14,29,9.20
2016,02,19,14,30,9.20
2016,02,19,14,31,9.20
2016,02,19,14,32,9.20
2016,02,19,14,33,9.30
2016,02,19,14,34,9.30
2016,02,19,14,35,9.30
2016,02,19,14,36,9.30
2016,02,19,14,37,9.30
2016,02,19,14,38,9.30
2016,02,19,14,39,9.30
2016,02,19,14,40,9.30
2016,02,19,14,41,9.40
2016,02,19,14,42,9.40
2016,02,19,14,43,9.40
2016,02,19,14,44,9.40
2016,02,19,14,45,9.40
2016,02,19,14,46,9.50
2016,02,19,14,47,9.50
2016,02,19,14,48,9.50
2016,02,19,14,49,9.50
2016,02,19,14,50,9.60
2016,02,19,14,51,9.60
2016,02,19,14,52,9.60
2016,02,19,14,53,9.60
2016,02,19,14,54,9.60
2016,02,19,14,55,9.60
2016,02,19,14,56,9.60
2016,02,19,14,57,9.60
2016,02,19,14,58,9.60
2016,02,19,14,59,9.60
2016,02,19,15,00,9.60
2016,02,19,15,01,9.50
2016,02,19,15,02,9.50
2016,02,19,15,03,9.40
2016,02,19,15,04,9.40
2016,02,19,15,05,9.40
2016,02,19,15,06,9.30
2016,02,19,15,07,9.30
2016,02,19,15,08,9.30
2016,02,19,15,09,9.30
2016,02,19,15,10,9.30
2016,02,19,15,11,9.30
2016,02,19,15,12,9.20
2016,02,19,15,13,9.20
2016,02,19,15,14,9.20
2016,02,19,15,15,9.20
2016,02,19,15,16,9.20
2016,02,19,15,17,9.10
2016,02,19,15,18,9.10
2016,02,19,15,19,9.10
2016,02,19,15,20,9.10
2016,02,19,15,21,9.10
2016,02,19,15,22,9.10
2016,02,19,15,23,9.10
2016,02,19,15,24,9.10
2016,02,19,15,25,9.10
2016,02,19,15,26,9.10
2016,02,19,15,27,9.10
2016,02,19,15,28,9.10
2016,02,19,15,29,9.10
2016,02,19,15,30,9.00
2016,02,19,15,31,9.10
2016,02,19,15,32,9.00
2016,02,19,15,33,9.00
2016,02,19,15,34,9.00
2016,02,19,15,35,9.00
2016,02,19,15,36,9.00
2016,02,19,15,37,9.00
2016,02,19,15,38,8.90
2016,02,19,15,39,8.90
2016,02,19,15,40,9.00
2016,02,19,15,41,8.90
2016,02,19,15,42,8.90
2016,02,19,15,43,8.90
2016,02,19,15,44,8.90
2016,02,19,15,45,8.90
2016,02,19,15,46,8.90
2016,02,19,15,47,8.90
2016,02,19,15,48,8.90
2016,02,19,15,49,8.90
2016,02,19,15,50,8.80
2016,02,19,15,51,8.80
2016,02,19,15,52,8.80
2016,02,19,15,53,8.80
2016,02,19,15,54,8.80
2016,02,19,15,55,8.80
2016,02,19,15,56,8.80
2016,02,19,15,57,8.80
2016,02,19,15,58,8.80
2016,02,19,15,59,8.80
2016,02,19,16,00,8.80
2016,02,19,16,01,8.80
2016,02,19,16,02,8.80
2016,02,19,16,03,8.80
2016,02,19,16,04,8.80
2016,02,19,16,05,8.80
2016,02,19,16,06,8.80
2016,02,19,16,07,8.80
2016,02,19,16,08,8.80
2016,02,19,16,09,8.80
2016,02,19,16,10,8.80
2016,02,19,16,11,8.70
2016,02,19,16,12,8.70
2016,02,19,16,13,8.70
2016,02,19,16,14,8.70
2016,02,19,16,15,8.60
2016,02,19,16,16,8.60
2016,02,19,16,17,8.60
2016,02,19,16,18,8.50
2016,02,19,16,19,8.50
2016,02,19,16,20,8.40
2016,02,19,16,21,8.40
2016,02,19,16,22,8.30
2016,02,19,16,23,8.30
2016,02,19,16,24,8.30
2016,02,19,16,25,8.30
2016,02,19,16,26,8.30
2016,02,19,16,27,8.20
2016,02,19,16,28,8.20
2016,02,19,16,29,8.20
2016,02,19,16,30,8.20
2016,02,19,16,31,8.20
2016,02,19,16,32,8.10
2016,02,19,16,33,8.10
2016,02,19,16,34,8.10
2016,02,19,16,35,8.10
2016,02,19,16,36,8.00
2016,02,19,16,37,8.00
2016,02,19,16,38,8.00
2016,02,19,16,39,7.90
2016,02,19,16,40,7.90
2016,02,19,16,41,7.90
2016,02,19,16,42,7.80
2016,02,19,16,43,7.80
2016,02,19,16,44,7.80
2016,02,19,16,45,7.80
2016,02,19,16,46,7.70
2016,02,19,16,47,7.70
2016,02,19,16,48,7.70
2016,02,19,16,49,7.70
2016,02,19,16,50,7.70
2016,02,19,16,51,7.70
2016,02,19,16,52,7.60
2016,02,19,16,53,7.60
2016,02,19,16,54,7.60
2016,02,19,16,55,7.60
2016,02,19,16,56,7.60
2016,02,19,16,57,7.60
2016,02,19,16,58,7.60
2016,02,19,16,59,7.60
2016,02,19,17,00,7.60
2016,02,19,17,01,7.60
2016,02,19,17,02,7.60
2016,02,19,17,03,7.60
2016,02,19,17,04,7.60
2016,02,19,17,05,7.60
2016,02,19,17,06,7.60
2016,02,19,17,07,7.60
2016,02,19,17,08,7.50
2016,02,19,17,09,7.50
2016,02,19,17,10,7.50
2016,02,19,17,11,7.40
2016,02,19,17,12,7.40
2016,02,19,17,13,7.40
2016,02,19,17,14,7.30
2016,02,19,17,15,7.30
2016,02,19,17,16,7.20
2016,02,19,17,17,7.20
2016,02,19,17,18,7.20
2016,02,19,17,19,7.20
2016,02,19,17,20,7.10
2016,02,19,17,21,7.10
2016,02,19,17,22,7.10
2016,02,19,17,23,7.10
2016,02,19,17,24,7.10
2016,02,19,17,25,7.10
2016,02,19,17,26,7.10
2016,02,19,17,27,7.10
2016,02,19,17,28,7.00
2016,02,19,17,29,7.00
2016,02,19,17,30,7.00
2016,02,19,17,31,7.00
2016,02,19,17,32,7.00
2016,02,19,17,33,7.00
2016,02,19,17,34,7.00
2016,02,19,17,35,7.00
2016,02,19,17,36,7.00
2016,02,19,17,37,7.00
2016,02,19,17,38,7.00
2016,02,19,17,39,7.00
2016,02,19,17,40,7.00
2016,02,19,17,41,7.00
2016,02,19,17,42,7.00
2016,02,19,17,43,7.00
2016,02,19,17,44,7.00
2016,02,19,17,45,7.00
2016,02,19,17,46,7.00
2016,02,19,17,47,7.00
2016,02,19,17,48,7.00
2016,02,19,17,49,7.00
2016,02,19,17,50,7.00
2016,02,19,17,51,7.00
2016,02,19,17,52,7.10
2016,02,19,17,53,7.10
2016,02,19,17,54,7.10
2016,02,19,17,55,7.10
2016,02,19,17,56,7.10
2016,02,19,17,57,7.10
2016,02,19,17,58,7.10
2016,02,19,17,59,7.00
2016,02,19,18,00,7.00
2016,02,19,18,01,7.00
2016,02,19,18,02,7.00
2016,02,19,18,03,7.00
2016,02,19,18,04,7.00
2016,02,19,18,05,7.00
2016,02,19,18,06,7.00